Le nostre stazioni meteo in Italia

Pubblicità
Il mio iltempo24.it
Novara/Cameri, Italia (16064): Temperatura & dewpoint: 30.06.2020 00:00:00 - 06.07.2020 00:00:00 (CEST)Novara/Cameri, Italia (16064): velocità del vento: 30.06.2020 00:00:00 - 06.07.2020 00:00:00 (CEST)Novara/Cameri, Italia (16064): direzione del vento: 30.06.2020 00:00:00 - 06.07.2020 00:00:00 (CEST)Novara/Cameri, Italia (16064): reduced air pressure: 30.06.2020 00:00:00 - 06.07.2020 00:00:00 (CEST)Novara/Cameri, Italia (16064): visibility: 30.06.2020 00:00:00 - 06.07.2020 00:00:00 (CEST)Novara/Cameri, Italia (16064): ore di luce: 30.06.2020 00:00:00 - 06.07.2020 00:00:00 (CEST)
Data & Tempo tt [°C] td [°C] ff [km/h] ff [kn] dd ppp [hPa] vv [km] sd [min]
06.07.2020 00:00:00 - - - - - - - -
05.07.2020 23:00:00 - - - - - - - -
05.07.2020 22:00:00 - - - - - - - -
05.07.2020 21:00:00 - - - - - - - -
05.07.2020 20:00:00 - - - - - - - -
05.07.2020 19:00:00 - - - - - - - -
05.07.2020 18:00:00 - - - - - - - -
05.07.2020 17:00:00 - - - - - - - -
05.07.2020 16:00:00 - - - - - - - -
05.07.2020 15:00:00 - - - - - - - -
05.07.2020 14:00:00 - - - - - - - -
05.07.2020 13:00:00 - - - - - - - -
05.07.2020 12:00:00 - - - - - - - -
05.07.2020 11:00:00 - - - - - - - -
05.07.2020 10:00:00 - - - - - - - -
05.07.2020 09:00:00 - - - - - - - -
05.07.2020 08:00:00 - - - - - - - -
05.07.2020 07:00:00 - - - - - - - -
05.07.2020 06:00:00 - - - - - - - -
05.07.2020 05:00:00 - - - - - - - -
05.07.2020 04:00:00 - - - - - - - -
05.07.2020 03:00:00 - - - - - - - -
05.07.2020 02:00:00 - - - - - - - -
05.07.2020 01:00:00 - - - - - - - -
05.07.2020 00:00:00 - - - - - - - -
04.07.2020 23:00:00 - - - - - - - -
04.07.2020 22:00:00 - - - - - - - -
04.07.2020 21:00:00 - - - - - - - -
04.07.2020 20:00:00 - - - - - - - -
04.07.2020 19:00:00 - - - - - - - -
04.07.2020 18:00:00 - - - - - - - -
04.07.2020 17:00:00 - - - - - - - -
04.07.2020 16:00:00 - - - - - - - -
04.07.2020 15:00:00 - - - - - - - -
04.07.2020 14:00:00 - - - - - - - -
04.07.2020 13:00:00 - - - - - - - -
04.07.2020 12:00:00 - - - - - - - -
04.07.2020 11:00:00 - - - - - - - -
04.07.2020 10:00:00 - - - - - - - -
04.07.2020 09:00:00 - - - - - - - -
04.07.2020 08:00:00 - - - - - - - -
04.07.2020 07:00:00 - - - - - - - -
04.07.2020 06:00:00 - - - - - - - -
04.07.2020 05:00:00 - - - - - - - -
04.07.2020 04:00:00 - - - - - - - -
04.07.2020 03:00:00 - - - - - - - -
04.07.2020 02:00:00 - - - - - - - -
04.07.2020 01:00:00 - - - - - - - -
04.07.2020 00:00:00 - - - - - - - -
03.07.2020 23:00:00 - - - - - - - -
03.07.2020 22:00:00 - - - - - - - -
03.07.2020 21:00:00 - - - - - - - -
03.07.2020 20:00:00 17,8 16,5 18 10 E 1013,8 10 0
03.07.2020 19:00:00 19,0 17,0 15 8 ENE - 10 -
03.07.2020 18:00:00 20,0 18,0 16 9 N - 10 -
03.07.2020 17:00:00 25,2 15,8 24 13 N 1011,1 10 42
03.07.2020 16:00:00 29,0 18,0 11 6 S - 10 -
03.07.2020 15:00:00 29,0 17,0 11 6 E - 10 -
03.07.2020 14:00:00 28,0 17,5 9 5 E 1011,8 30 60
03.07.2020 13:00:00 28,0 18,0 9 5 ESE - 10 -
03.07.2020 12:00:00 27,0 18,0 5 3 E - 10 -
03.07.2020 11:00:00 25,4 17,9 8 4 E 1011,7 30 60
03.07.2020 10:00:00 24,0 17,0 8 4 ENE - 10 -
03.07.2020 09:00:00 22,0 17,0 8 4 N - 10 -
03.07.2020 08:00:00 20,6 16,2 11 6 N 1012,2 30 -
03.07.2020 07:00:00 18,0 16,0 9 5 NNO - 10 -
03.07.2020 06:00:00 - - - - - - - -
03.07.2020 05:00:00 - - - - - - - -
03.07.2020 04:00:00 - - - - - - - -
03.07.2020 03:00:00 - - - - - - - -
03.07.2020 02:00:00 - - - - - - - -
03.07.2020 01:00:00 - - - - - - - -
03.07.2020 00:00:00 - - - - - - - -
02.07.2020 23:00:00 - - - - - - - -
02.07.2020 22:00:00 - - - - - - - -
02.07.2020 21:00:00 - - - - - - - -
02.07.2020 20:00:00 26,4 20,7 9 5 SE 1008,8 15 0
02.07.2020 19:00:00 28,0 20,0 8 4 OSO - 10 -
02.07.2020 18:00:00 30,0 20,0 9 5 SSO - 10 -
02.07.2020 17:00:00 30,2 20,2 9 5 SO 1008,8 15 60
02.07.2020 16:00:00 29,0 20,0 11 6 O - 10 -
02.07.2020 15:00:00 29,0 20,0 11 6 OSO - 10 -
02.07.2020 14:00:00 28,2 19,4 13 7 OSO 1010,8 15 60
02.07.2020 13:00:00 28,0 21,0 11 6 OSO - 10 -
02.07.2020 12:00:00 28,0 19,0 8 4 O - 10 -
02.07.2020 11:00:00 26,2 18,6 4 2 N 1011,5 15 60
02.07.2020 10:00:00 25,0 20,0 5 3 NNO - 10 -
02.07.2020 09:00:00 23,0 19,0 5 3 NNO - 10 -
02.07.2020 08:00:00 21,4 19,3 8 4 N 1011,7 15 -
02.07.2020 07:00:00 19,0 18,0 4 2 N - 10 -
02.07.2020 06:00:00 - - - - - - - -
02.07.2020 05:00:00 - - - - - - - -
02.07.2020 04:00:00 - - - - - - - -
02.07.2020 03:00:00 - - - - - - - -
02.07.2020 02:00:00 - - - - - - - -
02.07.2020 01:00:00 - - - - - - - -
02.07.2020 00:00:00 - - - - - - - -
01.07.2020 23:00:00 - - - - - - - -
01.07.2020 22:00:00 - - - - - - - -
01.07.2020 21:00:00 - - - - - - - -
01.07.2020 20:00:00 26,8 22,7 5 3 SSE 1010,2 10 6
01.07.2020 19:00:00 28,0 22,0 5 3 S - 10 -
01.07.2020 18:00:00 29,0 21,0 9 5 SO - 10 -
01.07.2020 17:00:00 28,6 19,5 8 4 OSO 1011,0 10 6
01.07.2020 16:00:00 28,0 19,0 5 3 S - 10 -
01.07.2020 15:00:00 28,0 19,0 8 4 OSO - 10 -
01.07.2020 14:00:00 27,6 18,9 8 4 ONO 1011,8 10 60
01.07.2020 13:00:00 26,0 19,0 4 2 - - 10 -
01.07.2020 12:00:00 24,0 20,0 9 5 ENE - 10 -
01.07.2020 11:00:00 20,0 19,4 9 5 E 1013,4 8 0
01.07.2020 10:00:00 20,0 19,0 8 4 ENE - 7 -
01.07.2020 09:00:00 21,0 19,0 13 7 ONO - 1,0 -
01.07.2020 08:00:00 21,6 19,4 9 5 ONO 1012,4 10 -
01.07.2020 07:00:00 20,0 19,0 4 2 - - 10 -
01.07.2020 06:00:00 - - - - - - - -
01.07.2020 05:00:00 - - - - - - - -
01.07.2020 04:00:00 - - - - - - - -
01.07.2020 03:00:00 - - - - - - - -
01.07.2020 02:00:00 - - - - - - - -
01.07.2020 01:00:00 - - - - - - - -
01.07.2020 00:00:00 - - - - - - - -
30.06.2020 23:00:00 - - - - - - - -
30.06.2020 22:00:00 - - - - - - - -
30.06.2020 21:00:00 - - - - - - - -
30.06.2020 20:00:00 29,2 20,1 8 4 OSO 1010,1 10 60
30.06.2020 19:00:00 30,0 20,0 9 5 O - 10 -
30.06.2020 18:00:00 30,0 21,0 11 6 OSO - 10 -
30.06.2020 17:00:00 30,2 21,0 9 5 O 1010,8 10 54
30.06.2020 16:00:00 30,0 20,0 5 3 - - 10 -
30.06.2020 15:00:00 29,0 20,0 8 4 S - 10 -
30.06.2020 14:00:00 28,0 19,5 4 2 N 1011,9 10 36
30.06.2020 13:00:00 28,0 19,0 4 2 - - 10 -
30.06.2020 12:00:00 27,0 19,0 8 4 E - 10 -
30.06.2020 11:00:00 25,0 18,7 4 2 N 1012,4 10 0
30.06.2020 10:00:00 24,0 18,0 5 3 N - 10 -
30.06.2020 09:00:00 23,0 19,0 5 3 NE - 10 -
30.06.2020 08:00:00 22,0 19,9 4 2 N 1012,0 10 -
30.06.2020 07:00:00 20,0 19,0 5 3 NE - 10 -
30.06.2020 06:00:00 - - - - - - - -
30.06.2020 05:00:00 - - - - - - - -
30.06.2020 04:00:00 - - - - - - - -
30.06.2020 03:00:00 - - - - - - - -
30.06.2020 02:00:00 - - - - - - - -
30.06.2020 01:00:00 - - - - - - - -
30.06.2020 00:00:00 - - - - - - - -

tt = Temperatura
td = dewpoint
ff = velocità del vento
dd = direzione del vento
ppp = reduced air pressure
vv = visibility
sd = ore di luce

Stazioni seguenti

WeatherPro
AMSI
MeteoEarth